User: anonymous   Login
Location: Caltech
(34.1382°N, 118.1253°W)
Time: 20:17:56
(UTC-07:00)
Language:

SL-16 R/B - Orbit

View from above orbital plane
View from above orbital plane
View from above satellite
View from above satellite

Ground track
Ground track

The orbit data is extracted from the following two-line orbital elements,

1 28353U 04021B   15089.81292903 -.00000194  00000-0 -76628-4 0  9994
2 28353 071.0017 335.7821 0005818 324.4498 035.6236 14.14117987557739
Epoch (UTC): 30 March 2015 19:30:37
Eccentricity: 0.0005818
inclination: 71.0017°
perigee height: 841 km
apogee height: 849 km
right ascension of ascending node: 335.7821°
argument of perigee: 324.4498°
revolutions per day: 14.14117987
mean anomaly at epoch: 35.6236°
orbit number at epoch: 55773

The dashed part of the orbit path shows where the satellite is in the earth's shadow,  

DLR